Hourly Data Report for December 14, 2020

L'ASSOMPTION
QUEBEC
Current Station Operator: ECCC - MSC

45°48'34.000" N
73°26'05.000" W
21.00 m
7014160
71524
WEW

Download Data

Hourly Data (December 2020)
Hourly Data Report for December 14, 2020
TIME
LST
Temp Definition
°C
Dew Point Definition
°C
Rel Hum Definition
%
Precip. Amount Definition
mm

Wind Dir Definition
10's deg

Wind Spd Definition
km/h
Visibility Definition
km
Stn Press Definition
kPa
Hmdx Definition


Wind Chill Definition


Weather Definition


00:00 -2.3 -7.1 69 0.0 24 13   101.53   -7 LegendNANA
01:00 -2.3 -7.1 70 0.0 26 11   101.52   -6 LegendNANA
02:00 -2.5 -6.9 72 0.0 27 8   101.47   -6 LegendNANA
03:00 -2.7 -7.2 71 0.0 28 9   101.54   -6 LegendNANA
04:00 -2.9 -7.2 72 0.0 26 7   101.47   -6 LegendNANA
05:00 -3.1 -7.4 72 0.0 30 8   101.50   -6 LegendNANA
06:00 -3.3 -7.7 71 0.0 31 5   101.49   -5 LegendNANA
07:00 -3.4 -8.0 70 0.0 5 4   101.46   -5 LegendNANA
08:00 -3.5 -8.2 70 0.0 11 3   101.43   -5 LegendNANA
09:00 -3.3 -8.0 70 0.0 7 2   101.38   -4 LegendNANA
10:00 -3.1 -7.3 73 0.0 4 5   101.32   -5 LegendNANA
11:00 -3.3 -7.0 75 0.0 13 2   101.21   -4 LegendNANA
12:00 -3.0 -6.8 75 0.0 28 4   101.08   -5 LegendNANA
13:00 -2.8 -6.5 76 0.0 27 4   101.02   -4 LegendNANA
14:00 -2.6 -6.6 74 0.0 24 4   100.96   -4 LegendNANA
15:00 -2.8 -6.5 75 0.0 31 4   100.87   -4 LegendNANA
16:00 -2.8 -6.2 77 0.0 19 3   100.83   -4 LegendNANA
17:00 -2.9 -6.3 77 0.0 17 5   100.77   -5 LegendNANA
18:00 -3.0 -5.7 82 0.0 25 3   100.78   -4 LegendNANA
19:00 -3.0 -5.3 84 0.0 24 4   100.75   -5 LegendNANA
20:00 -3.2 -4.3 92 0.3 21 5   100.71   -5 LegendNANA
21:00 -3.6 -4.8 92 0.0 20 7   100.71   -7 LegendNANA
22:00 -3.0 -4.8 87 0.0 23 16   100.74   -8 LegendNANA
23:00 -3.2 -5.4 85 0.0 25 16   100.82   -9 LegendNANA

Notes on Data Quality.

Legend

  • E = Estimated
  • M = Missing
  • NA = Not Available*
  • [empty] = Indicates an unobserved value
Date modified: